Terminal Aerodrome Forecast
Issued by NWS Quad Cities IA IL

Home | Current Version | Previous Version | Text Only | Print | Product List | Glossary On
Versions: 1 2 3 4 5 6 7 8 9 10 11 12 13 14 15 16 17 18 19
000
FTUS43 KDVN 210259 AAC
TAFMLI
TAF AMD
KMLI 210259Z 2103/2124 24007KT P6SM VCTS BKN060CB
      TEMPO 2103/2105 VRB15G25KT 1SM TSRA BKN025CB OVC050
     FM210500 VRB06KT P6SM BKN050
     FM210900 10009KT 4SM BR BKN040
     FM211300 12011KT 6SM BR BKN040
     FM211600 18013G20KT P6SM SCT050=

USA.gov is the U.S. government's official web portal to all federal, state and local government web resources and services.